Simultaneous Nadir Overpasses (SNOs) Predictions

Prediction of SNOs near US between AQUA and NPP Satellite Orbit:

Table of predicted SNOs near US for the next 10.0 days since TLE Epoch: 8/1/2014
Index Date (AQUA) Time (AQUA) AQUA Lat,Lon Date (NPP) Time (NPP) NPP Lat,Lon Distance(km) Time Diff (sec)
1 08/01/2014 17:27:49 49.97, -67.86 08/01/2014 17:27:25 49.72, -69.17 97.80 24
2 08/01/2014 19:04:35 42.41, -89.75 08/01/2014 19:06:42 42.05, -91.51 150.47 127
3 08/01/2014 20:40:57 33.37,-111.73 08/01/2014 20:45:35 32.93,-113.98 214.60 278
4 08/04/2014 06:56:32 20.02, -77.22 08/04/2014 06:52:06 19.90, -76.70 55.43 266
5 08/04/2014 08:33:18 27.68,-100.09 08/04/2014 08:31:23 27.68,-100.09 0.03 115
6 08/04/2014 10:05:59 49.92,-117.76 08/04/2014 10:06:29 49.97,-117.95 14.57 30
7 08/06/2014 21:04:08 49.95,-121.94 08/06/2014 20:56:39 50.02,-121.56 27.83 449
8 08/07/2014 07:19:07 49.92, -76.05 08/07/2014 07:27:26 51.16, -77.72 181.84 499
9 08/09/2014 18:08:58 20.09, -71.33 08/09/2014 18:09:20 19.88, -72.35 109.24 22
10 08/09/2014 19:53:05 38.96,-101.01 08/09/2014 19:56:10 38.59,-102.92 169.94 185




NCC Satellite Simultaneous Nadir Overpasses (SNOs) Prediction Service
